Tracking 31011 objects as of 13-Jul-2025
HD Live streaming from Space Station
objects crossing your sky now

COSMOS 374 DEB

Track COSMOS 374 DEB now!
10-day predictions


NORAD ID: 4617
Int'l Code: 1970-089D
Perigee: 552.9 km
Apogee: 990.8 km
Inclination: 62.9 °
Period: 100.1 minutes
Semi major axis: 7142 km
RCS: 0.3477 m2 (medium)
Launch date: October 23, 1970
Source: Commonwealth of Independent States (former USSR) (CIS)
Launch site: TYURATAM MISSILE AND SPACE COMPLEX (TTMTR)

Note: This is SATELLITE DEBRIS
Your satellite tracking list
Your tracking list is empty




NASA's NSSDC Master Catalog

Two Line Element Set (TLE):
1 04617U 70089D   25193.75616181  .00001370  00000-0  29093-3 0  9994
2 04617  62.9436 327.6033 0306550 289.5697  67.2513 14.38124927719090
Source of the keplerian elements: AFSPC